"Pseudo-MPEC" for P22n0fj

Created 2026 May 8 1:35:07 UT using Find_Orb

Click here for an explanation of pseudo-MPECs

 
 Astrometry: 
     P22n0fj*0C2026 05 07.31499714 21 16.372+15 43 27.15   ~579Z 21.82wXNEOCPF52
     P22n0fj 0C2026 05 07.32768814 21 17.531+15 43 23.93   ~579Z 21.75wXNEOCPF52
     P22n0fj 0C2026 05 07.34044914 21 18.659+15 43 20.38   ~579Z 21.68wXNEOCPF52
     P22n0fj 0C2026 05 07.35318914 21 19.758+15 43 16.28   ~579Z 21.84wXNEOCPF52
     P22n0fj  C2026 05 07.39759014 21 18.322+15 42 27.63   ~57AK 21.1 GWNEOCPH01
     P22n0fj  C2026 05 07.40054514 21 18.628+15 42 26.13   ~57AK 20.8 GWNEOCPH01
     P22n0fj  C2026 05 07.41365714 21 19.982+15 42 19.64   ~57AK 21.3 GWNEOCPH01
     P22n0fj 0C2026 05 07.41665514 21 25.137+15 42 54.05   ~57GZ 21.56GVNEOCPF52
     P22n0fj 0C2026 05 07.41746314 21 25.206+15 42 53.78   ~57GZ 21.36GVNEOCPF52
     P22n0fj  C2026 05 07.41919214 21 20.585+15 42 16.75   ~57AK 21.6 GWNEOCPH01

Station data:
(F52) Pan-STARRS 2, Haleakala  (N20.707382 W156.255910)  US/Hawaii.
   Observers J. Herman, T. Lowe, P. Minguez, A. Schultz, I. Smith. Measurers
   K. Chambers, T. de Boer, J. Fairlamb, H. Gao, M. Huber, C.-C. Lin, E.
   Magnier, Y. Ramanjooloo, R. Wainscoat, R. Weryk. 1.8-m Ritchey-Chrétien +
   CCD.
(H01) Magdalena Ridge Observatory, Socorro  (N33.984833 W107.189333)  US/New
   Mexico.  Observers W. H. Ryan, E. V. Ryan. Measurer W. H. Ryan. 2.4-m
   f/8.9 reflector + CCD.

Orbital elements:  P22n0fj
   Perihelion 2026 Jun 6.756081 +/- 25.3 TT = 18:08:45.3 (JD 2461198.256081)
Epoch 2026 May  7.0 TT = JDT 2461167.5   Earth MOID: 0.0247   Ma: 0.0264
M 342.394656142 +/- 4.6             (J2000 ecliptic)             AutoNEOCP
n   0.572418310 +/- 0.32            Peri.  180.163192 +/- 80
a   1.436570810 +/- 0.536           Node    76.291110 +/- 55
e   0.27633755 +/- 0.34             Incl.    3.711914 +/- 5.9
P   1.722/628.899d         H 25.70  G  0.15   U 12.0
q 1.039592346 +/- 0.101    Q 1.833549273 +/- 1.17
From 10 observations 2026 May 7 (2.5 hr); mean residual 0".10
Residuals in arcseconds: 
260507 F52  .10-  .21-    260507 H01  .06-  .04-    260507 F52  .01-  .01+    
260507 F52  .10+  .07+    260507 H01  .01+  .07-    260507 H01  .21+  .06-    
260507 F52  .08+  .21+    260507 H01  .06-  .01+    
260507 F52  .07-  .02-    260507 F52  .02-  .04-    

Ephemerides (geocentric):
Date (UTC) HH   RA             Dec           delta  r     elong  mag " sig PA
---- --------  ------------   ------------  ------ ------ -----  --- --------
2026 05 08 02  14 22 55.347   +15 38 28.80  .07437 1.0718 146.2 21.5 71.3 102
2026 05 08 03  14 23 01.108   +15 38 10.05  .07427 1.0717 146.2 21.5 80.6 102
2026 05 08 04  14 23 06.888   +15 37 51.13  .07416 1.0716 146.2 21.5 90.5 102
2026 05 08 05  14 23 12.686   +15 37 32.02  .07405 1.0715 146.2 21.5  101 102
2026 05 08 06  14 23 18.502   +15 37 12.72  .07395 1.0714 146.2 21.5  112 102
2026 05 08 07  14 23 24.336   +15 36 53.24  .07384 1.0713 146.2 21.5  124 102
2026 05 08 08  14 23 30.189   +15 36 33.57  .07374 1.0713 146.2 21.5  137 102
2026 05 08 09  14 23 36.060   +15 36 13.71  .07363 1.0712 146.2 21.5  150 102
2026 05 08 10  14 23 41.950   +15 35 53.67  .07352 1.0711 146.2 21.5  164 102
2026 05 08 11  14 23 47.858   +15 35 33.43  .07342 1.0710 146.1 21.5  178 102
2026 05 08 12  14 23 53.785   +15 35 13.01  .07331 1.0709 146.1 21.5  194 102
2026 05 08 13  14 23 59.731   +15 34 52.40  .07321 1.0708 146.1 21.5  210 102
2026 05 08 14  14 24 05.695   +15 34 31.59  .07310 1.0707 146.1 21.5  227 102
2026 05 08 15  14 24 11.679   +15 34 10.60  .07300 1.0706 146.1 21.5  244 102
2026 05 08 16  14 24 17.681   +15 33 49.41  .07289 1.0706 146.1 21.5  263 102
2026 05 08 17  14 24 23.703   +15 33 28.03  .07278 1.0705 146.1 21.5  282 102
2026 05 08 18  14 24 29.743   +15 33 06.45  .07268 1.0704 146.1 21.5  302 102
2026 05 08 19  14 24 35.803   +15 32 44.68  .07257 1.0703 146.1 21.5  323 102
2026 05 08 20  14 24 41.882   +15 32 22.71  .07247 1.0702 146.1 21.5  345 102
2026 05 08 21  14 24 47.980   +15 32 00.55  .07236 1.0701 146.1 21.5  367 102
2026 05 08 22  14 24 54.097   +15 31 38.19  .07226 1.0700 146.0 21.5  391 102
2026 05 08 23  14 25 00.234   +15 31 15.63  .07215 1.0700 146.0 21.5  415 102
2026 05 09 00  14 25 06.391   +15 30 52.88  .07205 1.0699 146.0 21.5  440 103
2026 05 09 01  14 25 12.567   +15 30 29.92  .07194 1.0698 146.0 21.5  466 103
2026 05 09 02  14 25 18.763   +15 30 06.77  .07184 1.0697 146.0 21.5  493 103
2026 05 09 03  14 25 24.978   +15 29 43.41  .07173 1.0696 146.0 21.5  521 103
2026 05 09 04  14 25 31.213   +15 29 19.86  .07163 1.0695 146.0 21.5  550 103
2026 05 09 05  14 25 37.469   +15 28 56.10  .07152 1.0695 146.0 21.5  580 103
2026 05 09 06  14 25 43.744   +15 28 32.14  .07142 1.0694 146.0 21.5  611 103
2026 05 09 07  14 25 50.039   +15 28 07.97  .07131 1.0693 146.0 21.5  643 103
2026 05 09 08  14 25 56.354   +15 27 43.60  .07121 1.0692 146.0 21.5  677 103
2026 05 09 09  14 26 02.689   +15 27 19.02  .07110 1.0691 146.0 21.5  711 103
2026 05 09 10  14 26 09.045   +15 26 54.24  .07100 1.0690 145.9 21.5  746 103
2026 05 09 11  14 26 15.421   +15 26 29.25  .07089 1.0690 145.9 21.5  782 103
2026 05 09 12  14 26 21.818   +15 26 04.06  .07079 1.0689 145.9 21.4  820 103
2026 05 09 13  14 26 28.234   +15 25 38.65  .07068 1.0688 145.9 21.4  859 103
2026 05 09 14  14 26 34.672   +15 25 13.04  .07058 1.0687 145.9 21.4  899 103
2026 05 09 15  14 26 41.130   +15 24 47.21  .07048 1.0686 145.9 21.4  940 103
2026 05 09 16  14 26 47.609   +15 24 21.18  .07037 1.0685 145.9 21.4  982 103
2026 05 09 17  14 26 54.108   +15 23 54.93  .07027 1.0684 145.9 21.4 1026 103
2026 05 09 18  14 27 00.629   +15 23 28.47  .07016 1.0684 145.9 21.4 1070 103
2026 05 09 19  14 27 07.170   +15 23 01.79  .07006 1.0683 145.9 21.4 1117 103
2026 05 09 20  14 27 13.733   +15 22 34.91  .06995 1.0682 145.9 21.4 1164 103
2026 05 09 21  14 27 20.316   +15 22 07.80  .06985 1.0681 145.9 21.4 1213 103
2026 05 09 22  14 27 26.921   +15 21 40.48  .06975 1.0680 145.9 21.4 1263 103
2026 05 09 23  14 27 33.547   +15 21 12.95  .06964 1.0680 145.8 21.4 1315 103
2026 05 10 00  14 27 40.194   +15 20 45.19  .06954 1.0679 145.8 21.4 1368 103
2026 05 10 01  14 27 46.863   +15 20 17.22  .06944 1.0678 145.8 21.4 1422 103